Regional Weather Roundup
Issued by NWS Grand Forks, ND

Home | Current Version | Previous Version | Text Only | Print | Product List | Glossary Off
Versions: 1 2 3 4 5 6 7 8 9 10 11 12 13 14 15 16 17 18 19 20 21 22 23 24 25 26 27 28 29 30 31 32 33 34 35 36 37 38 39 40 41 42 43 44 45 46 47 48 49 50

000
ASUS43 KFGF 050831
RWRFGF
PRAIRIE TO PINES  WEATHER ROUNDUP
NATIONAL WEATHER SERVICE EASTERN NORTH DAKOTA/GRAND FORKS ND
300 AM CDT WED AUG 05 2015

 **SATELLITE DATA USED TO AUGMENT SKY COVER AT AUTOMATED STATIONS**
 *****  WEATHER ACROSS EASTERN NORTH DAKOTA  *****

CITY           SKY/WX    TMP DP  RH WIND       PRES   REMARKS
GRAND FORKS    PTCLDY    57  52  83 CALM      30.04R
GRAND FRKS AFB PTCLDY    51  50  95 CALM      30.04S
GRAND FRKS NWS   N/A     59 N/A N/A SE3         N/A
DEVILS LAKE    PTCLDY    61  50  67 SE12      30.03S
FARGO          CLEAR     57  52  83 E5        30.03S
WAHPETON ARPT  NOT AVBL
$$

 ***** WEATHER ACROSS CENTRAL AND WESTERN NORTH DAKOTA  *****

CITY           SKY/WX    TMP DP  RH WIND       PRES   REMARKS
BISMARCK       CLOUDY    64  58  80 E6        29.99S
MINOT          CLOUDY    63  54  72 SE10      29.95F
JAMESTOWN      PTCLDY    58  53  84 E3        30.02F
MINOT AFB      CLOUDY    61  58  88 SE10      29.94F
GARRISON         N/A     65  60  84 SE8       29.97S
WILLISTON      CLOUDY    70  60  70 CALM      29.93F
DICKINSON      CLOUDY    62  59  90 CALM      29.95F
HETTINGER      CLOUDY    64  61  90 CALM      30.00R
$$

 *****  OTHER AIRPORT OBSERVATIONS IN OUR AREA  *****

CITY           SKY/WX    TMP DP  RH WIND       PRES   REMARKS
WALHALLA       FAIR      54  54 100 MISG      30.05S
GRAFTON AIRPOR FAIR      55  54  94 E5        30.05S
VALLEY CITY AR CLOUDY    61  55  82 SE6       30.04S
CANDO          FAIR      55  54  94 SE7       30.04F
CAVALIER APRT  FAIR      54  52  94 CALM      30.05S
GWINNER          N/A     57  55  94 NE6       30.03F
ROLLA          CLOUDY    55  54  94 SE8       30.05S
 ***** THE ABOVE OBSERVATIONS ARE NON NWS ARE NOT QUALITY
       CONTROLLED AND MAY MIS-REPORT RAIN FOR SNOW...
$$

  *****  WEATHER ACROSS NORTHERN MINNESOTA  *****

CITY           SKY/WX    TMP DP  RH WIND       PRES   REMARKS
FLAG ISLAND    CLEAR     64  55  72 S5        30.07R
WARROAD        CLEAR     54  50  87 CALM      30.08S
ROSEAU         PTCLDY    52  46  82 CALM      30.07S
HALLOCK        MOCLDY    54  52  94 SE3       30.04S
THF RVR FALLS  PTCLDY    54  48  82 SE5       30.06S
BAUDETTE       CLEAR     51  49  92 SE5       30.08F
WASKISH        CLEAR     46  46 100 CALM      30.09R
CROOKSTON      PTCLDY    54  52  94 SE6       30.06R
STEPHEN NDAWN    N/A     54  52  94 E1          N/A
GREENBUSH NDAW   N/A     52  50  93 SE1         N/A
$$
  *****  WEATHER ACROSS CENTRAL AND WEST MINNESOTA  *****

CITY           SKY/WX    TMP DP  RH WIND       PRES   REMARKS
FOSSTON        CLEAR     54  46  76 SE7       30.07S
BEMIDJI        CLEAR     55  51  86 SE5       30.09R
PARK RAPIDS    CLEAR     58  52  80 E3        30.08S
ELBOW LAKE     FAIR      63  56  78 E7        30.05S
WADENA         CLEAR     54  52  94 E5        30.07S
DETROIT LAKES  CLEAR     59  52  77 CALM      30.08R
MOORHEAD       CLEAR     57  52  82 SE3       30.05S
FERGUS FALLS   CLEAR     63  54  72 E5        30.05R
MORRIS MN      CLEAR     57  54  88 E3        30.04S
STAPLES        CLEAR     54  52  94 CALM      30.08R
$$
  *****  WEATHER ELSEWHERE ACROSS MINNESOTA  *****

CITY           SKY/WX    TMP DP  RH WIND       PRES   REMARKS
DULUTH         PTCLDY    53  48  83 CALM      30.08S
INTRNTL FALLS  CLEAR     40  39  97 CALM      30.09F
ELY            CLEAR     48  46  93 CALM      30.10S
CLOQUET        CLEAR     48  46  93 CALM      30.09R
WHEATON        CLEAR     52  48  87 E5        30.05F
BRAINERD       CLEAR     53  51  93 NE6       30.08R
HIBBING        CLEAR     40  39  97 CALM      30.10R
ALEXANDRIA     CLEAR     59  55  87 E5        30.08R
SAINT CLOUD    CLEAR     54  53  97 CALM      30.06R
MINNEAPOLIS    CLEAR     67  54  63 CALM      30.04R
$$

  *****  WEATHER ACROSS SOUTH DAKOTA  *****

CITY           SKY/WX    TMP DP  RH WIND       PRES   REMARKS
SIOUX FALLS    MOCLDY    65  58  78 E7        30.02F
BROOKINGS      MOCLDY    61  54  77 E5        30.06S
WATERTOWN      PTCLDY    64  54  69 CALM      30.05R
HURON          MOCLDY     1  32 100 SE7       30.00F WCI -12
SISSETON         N/A     54  52  93 CALM      30.03S
ABERDEEN       PTCLDY    60  56  86 SE6       30.01F
MITCHELL       CLOUDY    64  62  93 E6        30.01S
PIERRE         MOCLDY    67  62  84 E8        29.97F
MOBRIDGE       PTCLDY    69  64  84 S10       29.97R
RAPID CITY     CLOUDY    64  61  90 SE3       30.00F
$$

  *****  SOME WEATHER IN NEARBY STATES *****

CITY           SKY/WX    TMP DP  RH WIND       PRES   REMARKS
GLASGOW MT     PTCLDY    63  60  90 SE8       29.90R
GREAT FALLS MT PTCLDY    61  50  67 SW12      29.93F
CHEYENNE WY    CLEAR     57  52  83 W3        30.20F
SCOTTSBLUFF NE PTCLDY    61  59  93 CALM      30.06F
OMAHA NE       MOCLDY    68  65  90 SE6       29.99R
DES MOINES IA  MOCLDY    70  62  76 SE7       30.00S
DAVENPORT IA   CLEAR     61  59  93 NE3       30.04S
CHICAGO IL     PTCLDY    63  59  87 CALM      30.02F
EAU CLAIRE WI  CLEAR     58  54  86 NE5       30.05R
LA CROSSE WI   CLEAR     60  57  89 SE5       30.04R
$$

  *****  SOME NATIONAL WEATHER *****

CITY           SKY/WX    TMP DP  RH WIND       PRES   REMARKS
LA GUARDIA NY  PTCLDY    74  61  63 CALM      29.89F
RALEIGH NC     PTCLDY    75  72  90 SW3       29.97S
ATLANTA GA     PTCLDY    79  67  66 SW9       30.03S
NEW ORLEANS LA MOCLDY    80  74  81 SW7       30.00S
OKLAHOMA CITY  PTCLDY    73  71  93 S6        29.91F
ALBUQUERQUE NM CLEAR     76  45  33 E5        30.16S
SALT LAKE CITY MOCLDY    76  46  34 S10       29.95F
LOS ANGELES CA PTCLDY    69  63  81 CALM      29.92S
BOISE ID       CLOUDY    72  61  68 E15       29.95R
SEATTLE WA     CLEAR     60  51  72 W3        30.04R
$$

*** WEATHER ACROSS MANITOBA...SASKATCHEWAN AND ONTARIO ***
                ***ONTARIO***

CITY           SKY/WX    TMP DP  RH WIND       PRES   REMARKS
GERALDTON      MOCLDY    54  50  87 W3        30.01S
THUNDER BAY    MOCLDY    52  50  93 SW7       30.07S
SIOUX LOOKOUT  CLEAR     45  45 100 CALM      30.09S
TORONTO        PTCLDY    59  52  77 W8        29.94S
BIG TROUT LK   CLOUDY    54  50  87 NW5       30.06R
PICKLE LAKE    NOT AVBL
DRYDEN         MOCLDY    52  50  93 NE2       30.10S
KENORA         PTCLDY    54  52  94 E5        30.10S
$$
                *** MANITOBA***

CITY           SKY/WX    TMP DP  RH WIND       PRES   REMARKS
BRANDON        MOCLDY    54  50  87 E7        30.03S
DAUPHIN        CLEAR     50  48  93 W6        30.01S
ISLAND LAKE    MOCLDY    55  54  94 CALM      30.09R
PILOT MOUND      N/A     54  50  87 E6          N/A
THE PAS        LGT RAIN  61  59  94 SE3       30.04R
THOMPSON       NOT AVBL
WINNIPEG       PTCLDY    54  52  94 E5        30.05F
LYNN LAKE      CLOUDY    55  52  88 E7        30.10R
CHURCHILL      FOG       46  45  93 N6        30.14S VSB 1/2
GILLAM         CLEAR     48  46  93 NE7       30.12S
$$
                ***SASKATCHEWAN***

CITY           SKY/WX    TMP DP  RH WIND       PRES   REMARKS
ESTEVAN        CLOUDY    64  55  72 SE14      29.90F
KINDERSLEY     PTCLDY    55  55 100 W2        29.85F
LLOYDMINSTER   CLOUDY    59  55  88 NE9       29.84F
PRINCE ALBERT  LGT RAIN  59  57  94 E20G30    29.86F
REGINA         LGT RAIN  61  59  94 SE12      29.92S
YORKTON        LGT RAIN  61  55  82 SE13      29.99R
N. BATTLEFORD  MOCLDY    61  55  82 E10       29.81F
LA RONGE       LGT RAIN  59  55  88 SE6       30.03S
SASKATOON      CLOUDY    64  61  88 S7        29.78F
SWIFT CURRENT  CLEAR     63  57  82 S6        29.87F
$$
NOTE: THESE ARE AUTOMATED STATIONS WITH LIMITED QUALITY CONTROL
      "FAIR" INDICATES FEW OR NO CLOUDS BELOW 12,000 FEET WITH NO
      SIGNIFICANT WEATHER AND/OR OBSTRUCTIONS TO VISIBILITY.
      SKY/WX - SKY CONDITION AND SIGNIFICANT WEATHER.
      TMP - AIR TEMPERATURE.    DP   - DEWPOINT TEMPERATURE.
      RH  - RELATIVE HUMIDITY.  PRES - PRESSURE.
      HX  - HEAT INDEX.         WCI  - WIND CHILL INDEX.
$


USA.gov is the U.S. government's official web portal to all federal, state and local government web resources and services.